646  
FPUS82 KCHS 182012  
OPUCHS  
 
TEST   
..KCHS/KSAV GATEWAY OBSERVATIONS
 
TEST  
NATIONAL WEATHER SERVICE CHARLESTON SC  
400 PM EDT WED SEP 18 2019  
 
NOTE: "FAIR" INDICATES FEW OR NO CLOUDS BELOW 12,000 FEET WITH NO  
SIGNIFICANT WEATHER AND/OR OBSTRUCTIONS TO VISIBILITY.  
 
SCZ050-WAZ558-NCZ071-TXZ119-213-PAZ071-DCZ001-FLZ074-172-MI076-  
NYZ176-178-MAZ016-IL014-TNZ027-NJZ106-GAZ044-MD014-182100-  
   
..GATEWAY OBSERVATIONS FOR CHARLESTON INTERNATIONAL
 
 
 
CITY SKY/WX TMP DP RH WIND PRES REMARKS  
CHAS AIRPORT PTSUNNY 82 54 37 N8 30.07S  
SEATTLE MOSUNNY 65 53 65 VRB3 29.89R  
CHARLOTTE PTSUNNY 77 54 44 E6 30.15S  
DALLAS DFW PTSUNNY 90 69 50 NE8 29.88F HX 94  
DALLAS LOVE MOSUNNY 93 70 46 E9G16 29.88F HX 99  
PHILLADELPHIA FAIR 75 46 35 NE10 30.21S  
WASH NATIONAL PTSUNNY 78 49 35 E5 30.19R  
BALTIMORE FAIR 77 51 40 E8 30.19R  
MIAMI FAIR 89 68 49 NE15 29.91F HX 93  
DETROIT FAIR 77 55 46 VRB6 30.20F  
NEWARK FAIR 70 48 45 NE14 30.24R  
LAGUARDIA FAIR 68 46 45 NE12 30.24R  
J F K FAIR 69 48 47 NE10G22 30.25R  
BOSTON LOGAN FAIR 63 42 46 NE17 30.31R  
FT. LAUDERDALE FAIR 87 71 58 NE14G22 29.91F HX 93  
CHICAGO O'HARE PTSUNNY 81 62 52 S9 30.08F  
CHICAGO MIDWAY PTSUNNY 82 60 47 S8 30.10F  
HOUSTON BUSH LGT RAIN 80 76 87 SW3 29.85F  
HOUSTON HOBBY CLOUDY 84 76 76 SW9 29.86F HX 93  
NASHVILLE FAIR 94 62 34 N9 30.01F HX 94  
ATLANTA FAIR 85 67 54 E17 30.05S  
LONDON HEATHRW N/A 61 43 51 NE3 30.42R  
 

 
 
GAZ044-118-TXZ119-213-NCZ071-DCZ001-MDZ014-506-PAZ021-071-NJZ106-  
NYZ176-178-MAZ106-OHZ011-021-055-MIZ076-KYZ091-ILZ014-INZ047-  
MNZ060-ONZ431-182100-  
   
..GATEWAY OBSERVATIONS FOR SAVANNAH INTERNATIONAL
 
 
 
CITY SKY/WX TMP DP RH WIND PRES REMARKS  
SAVANNAH ARPT CLOUDY 78 65 63 E10 30.07S  
ATLANTA FAIR 85 67 54 E17 30.05S  
CHARLOTTE PTSUNNY 77 54 44 E6 30.15S  
DALLAS DFW PTSUNNY 90 69 50 NE8 29.88F HX 94  
HOUSTON BUSH LGT RAIN 80 76 87 SW3 29.85F  
WASH NATIONAL PTSUNNY 78 49 35 E5 30.19R  
WASH DULLES PTSUNNY 78 48 34 CALM 30.19S  
BALTIMORE FAIR 77 51 40 E8 30.19R  
PHILADELPHIA FAIR 75 46 35 NE10 30.21S  
NEWARK FAIR 70 48 45 NE14 30.24R  
LAGUARDIA FAIR 68 46 45 NE12 30.24R  
J F K FAIR 69 48 47 NE10G22 30.25R  
BOSTON FAIR 63 42 46 NE17 30.31R  
PITTSBURG FAIR 75 44 33 SE6 30.20F  
AKRON FAIR 79 49 34 E14 30.19F  
CLEVELAND FAIR 80 48 32 E7 30.20F  
CINCINNATI FAIR 86 58 38 NE14 30.09F  
COLUMBUS FAIR 82 50 32 NE12 30.12F  
DETROIT FAIR 77 55 46 VRB6 30.20F  
CHICAGO O'HARE PTSUNNY 81 62 52 S9 30.08F  
MINNEAPOLIS PTSUNNY 81 67 62 S18G31 29.86F  
INDIANAPOLIS FAIR 85 56 37 E8 30.09F  
TORONTO CANADA NOT AVBL  
 

 
 
 
CLICK HERE TO GO TO PREVIOUS BULLETINS.

The Nexlab SC Page
The Nexlab GA Page Main Text Page